Weather History for Saltillo, Mexico

Change the Weather History Date:

Wednesday, March 20, 2013

  Actual Average Record
Temperature  
Mean Temperature 57 °F -  
Max Temperature 67 °F 72 °F 140 °F (2008)
Min Temperature 47 °F 53 °F 41 °F (1997)
Degree Days  
Heating Degree Days 8    
Growing Degree Days 7 (Base 50)    
Moisture  
Dew Point 47 °F    
Average Humidity 62    
Maximum Humidity 99    
Minimum Humidity 13    
Precipitation  
Precipitation 0.00 in - - ()
Sea Level Pressure  
Sea Level Pressure 30.07 in    
Wind  
Wind Speed 9 mph ()    
Max Wind Speed 23 mph    
Max Gust Speed -    
Visibility 5.1 miles    
Events Fog    
Averages and records for this station are not official NWS values.
T = Trace of Precipitation, MM = Missing Value Source: Averaged Metar Reports

Daily Weather History Graph

Daily Weather History Graph

Search for Another Location

Airport:

Trip Planner

Search our weather history database for the weather conditions in past years. The results will help you decide how hot, cold, wet, or windy it might be!

Date:

Astronomy

Mar. 20, 2013 Rise Set
Actual Time 6:47 AM CST 6:55 PM CST
Civil Twilight 6:24 AM CST 7:18 PM CST
Nautical Twilight 5:57 AM CST 7:44 PM CST
Astronomical Twilight 5:30 AM CST 8:11 PM CST
Moon 1:02 PM CST (3/20) 1:56 AM CST (3/20)
Length of Visible Light 12h 53m
Length of Day
12h 07m
First Quarter, 60% of the Moon is Illuminated
Mar 20
First Quarter
Mar 27
Full
Apr 2
Last Quarter
Apr 10
New
Apr 18
First Quarter

Hourly Weather History & Observations

Time (CST) Temp. Dew Point Humidity Pressure Visibility Wind Dir Wind Speed Gust Speed Precip Events Conditions
2:30 AM 52 °F 17 °F 14% 29.78 in 3 mi South 4.5 mph - -   Haze
5:30 AM 55 °F 19 °F 13% 29.91 in 3 mi North 6.7 mph - -   Haze
6:00 AM 53.6 °F 37.4 °F 54% 30.13 in 10.0 mi Calm Calm - N/A   Clear
6:40 AM 57.2 °F 35.6 °F 44% 30.14 in 10.0 mi South 6.9 mph - N/A   Scattered Clouds
7:40 AM 62.6 °F 41.0 °F 45% 30.17 in 10.0 mi Calm Calm - N/A   Scattered Clouds
8:35 AM 57 °F 47 °F 62% 30.05 in 4 mi North 15.7 mph - -   Haze
8:40 AM 66.2 °F 44.6 °F 46% 30.20 in 8.0 mi North 9.2 mph - N/A   Mostly Cloudy
9:40 AM 66.2 °F 48.2 °F 52% 30.21 in 8.0 mi North 9.2 mph - N/A   Mostly Cloudy
10:40 AM 66.2 °F 48.2 °F 52% 30.21 in 6.0 mi North 11.5 mph - N/A   Mostly Cloudy
11:30 AM 65 °F 52 °F 53% 30.04 in 4 mi North 13.4 mph - -   Haze
11:40 AM 68.0 °F 48.2 °F 49% 30.18 in 8.0 mi North 16.1 mph - N/A   Scattered Clouds
12:40 PM 68.0 °F 48.2 °F 49% 30.16 in 8.0 mi NNE 16.1 mph - N/A   Mostly Cloudy
2:30 PM 66 °F 53 °F 53% 29.92 in 5 mi North 15.7 mph - -   Haze
2:40 PM 68.0 °F 48.2 °F 49% 30.12 in 8.0 mi NE 23.0 mph - N/A   Mostly Cloudy
3:40 PM 66.2 °F 53.6 °F 64% 30.10 in 8.0 mi North 23.0 mph - N/A   Mostly Cloudy
4:40 PM 62.6 °F 57.2 °F 82% 30.10 in 6.0 mi North 13.8 mph - N/A   Overcast
5:30 PM 56 °F 52 °F 83% 29.88 in 4 mi North 15.7 mph - -   Haze
5:40 PM 59.0 °F 55.4 °F 88% 30.10 in 3.0 mi North 11.5 mph - N/A   Overcast
6:30 PM 57.2 °F 55.4 °F 94% 30.10 in 1.0 mi North 11.5 mph - N/A   Overcast
6:40 PM 57.2 °F 55.4 °F 94% 30.10 in 0.8 mi North 11.5 mph - N/A   Overcast
7:40 PM 57.2 °F 55.4 °F 94% 30.10 in 0.8 mi North 9.2 mph - N/A   Overcast
8:30 PM 52 °F 52 °F 99% 29.90 in 1 mi SE 8.9 mph - -   Haze
8:40 PM 55.4 °F 53.6 °F 94% 30.11 in 0.5 mi NNE 9.2 mph - N/A Fog Fog
11:30 PM - 51 °F % 29.91 in 2 mi North 6.7 mph - -   Haze